Wind_Speed
15 14 16 19 22 16 12 17 12 13 11 10 9 9 8 8 9 10 15 12 12 12 13 15 13 17 17 11 16 8 6 9 4 5 1 3 5 4 7 16 15 4 14 26 35
15 14 15 18 22 14 9 15 14 12 10 9 8 7 8 8 10 11 10 12 13 7 15 14 12 16 19 13 12 8 7 11 4 5 2 4 5 7 6 13 9 15 17 27 34
17 12 16 18 20 19 8 11 13 12 10 8 7 7 6 5 9 3 6 9 19 11 16 16 16 12 20 16 17 6 7 13 4 12 9 2 4 2 6 4 7 14 17 19 31
17 14 17 19 19 19 10 9 11 11 10 7 6 6 4 1 1 8 11 11 9 11 14 15 21 7 8 12 15 10 16 14 6 5 7 5 2 4 1 8 12 10 10 18 24
16 14 17 19 16 17 12 8 10 9 9 7 5 4 3 3 5 5 10 8 12 16 15 15 20 10 10 12 11 11 8 19 8 7 3 7 7 2 11 15 13 11 12 17 21
19 16 15 17 17 16 15 7 10 9 8 6 4 3 5 4 4 10 8 7 11 9 14 15 12 13 11 8 13 17 17 18 17 9 1 4 7 12 8 11 16 14 14 17 18
18 17 14 16 17 14 17 9 10 8 8 6 4 5 9 11 6 7 10 9 10 7 3 7 16 9 5 8 23 13 12 4 13 12 4 1 4 6 15 14 17 15 13 18 19
17 17 14 17 13 13 17 7 8 8 8 4 3 5 6 5 1 6 4 6 9 9 7 16 9 7 5 10 5 13 7 10 8 13 2 11 7 14 14 17 14 16 17 15 19
20 16 14 16 14 14 7 2 3 5 2 1 1 5 5 6 4 9 5 7 9 10 4 12 5 2 5 2 5 7 9 5 9 17 6 9 2 21 21 20 15 16 18 17 15
20 15 14 14 15 11 3 0 1 3 5 3 4 6 4 2 9 5 4 9 4 4 5 5 4 3 3 1 10 9 8 6 7 11 11 10 11 13 21 22 17 13 12 18 16
20 14 13 12 11 5 3 2 2 2 2 1 3 6 7 13 9 0 7 6 5 3 2 4 3 6 8 5 10 7 13 16 5 11 11 10 6 7 8 9 10 11 11 8 12
19 14 11 10 6 2 7 2 2 1 1 3 4 7 4 7 4 4 8 3 0 2 3 4 2 4 5 11 9 13 10 8 6 15 8 8 7 11 10 9 17 20 18 21 17
18 13 9 5 4 5 7 1 3 4 1 1 3 3 4 4 4 9 7 6 3 3 2 3 4 4 8 5 7 2 8 5 9 6 6 11 8 16 8 20 23 24 28 30 28
15 11 7 6 4 3 2 5 4 7 3 5 2 3 4 3 3 6 6 3 2 3 3 3 5 6 6 3 5 6 9 11 7 7 2 5 3 12 14 11 8 25 25 23 25
12 9 2 8 6 2 3 3 7 2 5 5 5 6 4 4 1 7 6 4 7 5 4 6 9 8 9 2 6 2 15 17 11 5 7 8 2 6 10 9 11 18 30 28 24
8 2 11 10 6 4 4 9 4 4 2 5 4 4 3 4 2 3 2 2 3 4 9 7 7 4 2 4 6 5 5 9 4 2 2 5 5 5 5 16 7 9 28 26 25
3 10 13 8 4 7 11 4 3 6 4 2 3 4 4 4 3 4 1 2 1 5 6 1 3 4 2 4 9 3 4 2 3 3 4 3 4 7 3 5 8 9 24 30 29
11 12 11 8 9 14 4 3 7 3 2 2 3 3 3 4 1 5 3 2 3 4 4 5 6 8 8 4 4 7 2 4 4 3 3 1 5 5 6 7 9 8 9 8 6
17 15 11 11 12 9 3 4 6 5 5 6 2 1 1 2 2 1 2 2 1 2 4 4 3 5 3 3 3 4 3 4 4 3 4 3 5 6 3 4 4 4 2 4 5
19 13 11 9 9 6 3 3 2 5 6 3 2 5 1 2 1 1 2 3 2 3 5 3 4 4 4 5 2 2 3 4 3 2 3 3 3 4 5 5 4 4 2 3 2
20 9 11 11 10 3 2 4 3 3 3 3 2 3 3 3 3 1 2 3 2 2 3 2 4 2 2 2 2 4 3 2 2 4 3 1 5 5 8 7 7 5 5 2 2
15 3 15 14 3 2 1 4 5 6 2 1 2 3 5 4 2 1 3 2 2 1 2 2 4 3 1 2 1 0 1 1 3 3 1 3 4 2 7 8 12 8 5 5 3
16 7 13 13 3 3 3 3 1 5 5 4 3 0 3 1 3 3 5 3 3 3 2 2 1 3 3 5 3 3 4 3 2 3 2 4 4 2 5 7 9 10 7 4 2
10 4 5 9 5 2 5 4 3 2 4 1 2 2 1 1 2 3 3 2 3 2 2 2 2 5 5 4 4 4 5 5 4 3 4 5 4 3 5 6 9 13 7 7 9
7 5 9 5 6 5 2 7 5 4 2 4 1 1 0 3 3 4 4 2 1 3 4 3 2 4 2 3 3 2 3 6 6 7 5 8 10 13 6 1 4 12 14 12 9
9 5 9 6 8 6 3 5 7 3 4 4 2 2 5 4 2 3 4 3 3 0 1 2 3 4 4 4 4 3 6 7 7 6 8 10 12 9 18 26 15 10 7 15 15
9 10 7 4 5 5 4 5 8 8 2 3 3 4 5 3 3 1 3 2 4 6 2 3 3 2 4 3 4 6 7 9 4 6 6 9 16 2 6 10 11 10 10 10 11
Wind_Direction
340 333 331 326 327 318 319 321 323 324 332 329 328 329 323 309 294 280 277 285 289 268 266 253 227 223 218 243 218 212 207 219 226 195 99 182 122 98 99 88 74 61 138 150 149
335 324 323 321 321 328 310 322 326 331 330 328 327 328 324 315 306 295 298 278 265 252 248 254 235 221 230 222 200 223 205 196 154 47 265 96 46 117 106 102 85 94 130 153 157
329 333 324 318 324 324 298 315 315 327 327 326 334 331 332 335 328 311 305 284 271 282 253 246 233 249 223 224 201 208 201 218 84 51 355 314 102 93 93 63 108 129 145 162 168
326 331 321 319 325 316 301 296 305 320 320 322 337 349 356 328 316 337 327 311 309 286 255 244 228 245 212 214 207 214 226 236 215 47 357 296 98 58 85 123 120 134 154 169 188
319 321 315 318 324 317 316 306 285 308 317 315 333 358 24 325 275 326 315 295 293 289 244 229 216 251 211 204 204 205 181 211 194 124 28 335 330 334 123 127 121 114 160 171 182
320 318 315 318 319 315 314 278 278 295 303 302 321 353 347 281 309 316 352 307 306 313 228 213 218 246 281 211 205 188 200 201 187 135 54 20 315 336 172 140 127 113 146 173 181
312 321 316 315 317 312 305 263 272 279 290 286 296 335 303 265 286 347 341 299 333 343 221 229 207 236 304 198 201 201 192 193 152 195 195 12 300 237 180 155 134 130 130 172 181
318 316 319 312 313 307 304 267 259 276 290 280 282 323 280 317 0 336 338 313 338 348 265 297 229 257 265 300 212 179 204 179 156 150 150 101 314 254 205 173 156 147 141 141 187
314 317 310 308 313 309 318 305 276 294 310 255 123 339 290 301 334 329 324 330 320 1 356 313 124 271 288 285 135 166 154 158 133 142 111 134 258 259 233 179 171 155 153 140 149
313 315 307 309 307 315 349 180 340 103 65 62 6 310 298 323 314 17 347 326 296 318 348 25 65 29 319 193 169 155 144 206 140 172 146 172 223 186 233 184 174 174 161 162 160
311 313 306 300 309 319 120 120 59 81 99 354 313 299 307 304 295 109 323 313 276 12 51 276 118 186 216 269 291 114 153 176 132 160 155 196 239 251 204 192 183 189 218 212 202
311 309 297 310 320 240 158 142 40 91 126 2 4 303 298 348 318 306 341 340 156 23 347 202 114 173 197 239 252 154 143 156 138 154 154 169 262 267 222 228 216 218 217 225 241
309 306 299 317 78 118 147 249 274 211 142 14 339 317 303 344 348 311 340 334 58 343 209 102 88 223 186 211 181 122 165 138 160 113 343 162 214 244 235 224 226 227 229 234 230
305 304 301 128 105 124 213 249 227 181 85 347 286 350 357 110 335 356 359 334 7 321 49 67 38 114 121 100 125 160 148 115 152 135 160 234 220 227 224 214 214 225 226 231 234
299 304 212 144 144 175 234 182 145 155 48 342 316 316 331 41 287 353 356 332 9 12 348 58 37 56 78 107 212 159 149 140 191 145 152 191 155 256 178 219 222 218 221 225 234
294 246 134 134 152 192 159 132 147 53 41 324 281 281 98 52 73 287 280 4 353 41 56 52 44 44 256 285 88 67 91 130 135 153 59 203 139 284 174 206 223 223 225 226 225
219 154 134 143 164 145 135 132 82 82 256 334 298 335 118 176 178 227 269 32 9 55 22 164 129 293 12 62 81 78 68 91 33 30 191 232 125 248 294 167 196 210 227 229 232
158 145 145 164 165 148 149 69 70 105 94 265 251 307 36 348 330 211 183 90 23 59 57 53 5 2 342 19 99 216 70 133 152 165 231 19 197 244 237 180 139 142 152 159 208
154 136 133 139 152 172 144 65 177 182 178 173 270 188 240 243 218 296 134 114 87 13 104 111 24 310 25 322 6 316 64 190 107 49 75 240 290 324 125 130 135 149 150 269 254
151 137 144 143 163 164 88 119 162 170 135 196 197 195 94 265 338 338 91 1 79 24 39 131 97 337 341 336 48 92 250 40 13 103 167 270 252 228 125 114 117 64 28 278 279
143 139 152 154 154 155 170 163 150 194 104 219 357 168 151 208 215 299 55 358 41 325 344 352 94 303 13 349 35 15 31 13 130 137 154 176 276 231 167 148 122 92 67 44 263
154 109 159 161 145 198 217 170 126 149 162 295 254 258 174 181 213 299 103 82 181 194 353 21 112 128 175 216 204 234 277 113 119 271 26 126 275 251 136 140 130 136 126 90 83
144 109 164 175 165 223 195 105 178 159 174 199 230 180 18 298 134 78 58 33 155 359 37 341 95 78 22 358 310 218 223 218 112 60 219 131 260 236 140 134 158 177 197 197 200
146 126 150 207 238 235 154 157 139 163 130 156 318 34 1 123 76 121 114 179 225 5 3 39 87 138 173 205 152 200 207 200 141 120 224 212 259 238 211 202 223 225 199 214 217
168 165 166 174 229 233 160 159 141 163 227 187 267 242 205 134 127 101 86 96 283 318 1 45 48 68 308 310 81 261 234 211 185 216 175 243 229 251 240 216 317 302 280 233 224
151 142 167 193 171 161 265 166 152 131 142 183 143 130 36 84 51 107 133 171 189 246 17 25 3 58 321 272 219 273 271 262 253 253 243 253 260 247 284 295 293 292 268 239 230
175 153 161 150 138 124 202 182 151 120 30 55 95 88 88 117 92 23 10 59 103 149 170 121 125 76 288 330 10 309 241 221 224 238 217 237 255 274 268 268 281 299 300 290 276
Height
1521 1519 1516 1512 1509 1508 1507 1505 1503 1501 1498 1496 1495 1493 1492 1491 1491 1491 1490 1491 1493 1493 1492 1492 1494 1495 1498 1498 1498 1499 1502 1504 1501 1498 1499 1494 1493 1497 1501 1501 1503 1505 1506 1514 1519
1519 1516 1514 1511 1507 1505 1504 1503 1501 1499 1497 1495 1493 1492 1490 1490 1490 1489 1489 1490 1488 1488 1489 1490 1491 1494 1494 1493 1495 1498 1494 1495 1495 1502 1499 1494 1494 1496 1500 1501 1507 1507 1510 1512 1516
1517 1514 1512 1509 1506 1502 1501 1501 1499 1497 1495 1493 1491 1490 1490 1489 1489 1487 1487 1487 1486 1485 1486 1488 1488 1491 1490 1490 1490 1484 1489 1490 1494 1499 1497 1498 1497 1498 1501 1506 1506 1509 1511 1514 1514
1514 1512 1509 1506 1504 1501 1499 1498 1497 1496 1494 1492 1491 1490 1489 1489 1491 1486 1486 1484 1482 1480 1482 1484 1485 1488 1486 1486 1486 1490 1490 1491 1496 1500 1499 1501 1500 1500 1501 1505 1506 1509 1511 1513 1516
1512 1509 1507 1504 1501 1499 1496 1496 1495 1494 1492 1491 1490 1489 1489 1490 1488 1486 1485 1484 1482 1480 1478 1479 1481 1484 1482 1480 1484 1486 1486 1490 1496 1500 1503 1502 1502 1505 1505 1505 1506 1508 1512 1514 1516
1508 1506 1505 1502 1498 1496 1494 1493 1493 1492 1491 1490 1489 1488 1489 1489 1486 1485 1483 1481 1480 1476 1474 1477 1477 1480 1480 1476 1480 1477 1485 1484 1492 1498 1503 1508 1508 1509 1507 1508 1507 1508 1511 1514 1517
1505 1503 1502 1499 1496 1493 1491 1490 1490 1490 1489 1489 1488 1488 1488 1486 1485 1483 1481 1480 1477 1475 1475 1476 1476 1480 1477 1475 1476 1476 1480 1483 1490 1497 1503 1507 1512 1511 1508 1509 1509 1508 1511 1514 1517
1502 1500 1498 1496 1493 1491 1488 1487 1487 1488 1488 1487 1487 1488 1485 1485 1483 1482 1481 1478 1476 1473 1473 1475 1470 1476 1476 1473 1471 1477 1482 1492 1492 1497 1505 1509 1521 1508 1509 1509 1508 1510 1512 1514 1516
1499 1496 1495 1493 1490 1487 1485 1485 1486 1486 1486 1486 1488 1487 1486 1485 1483 1482 1480 1478 1475 1472 1471 1471 1472 1474 1473 1470 1471 1474 1482 1487 1494 1494 1504 1510 1520 1513 1513 1508 1507 1510 1511 1513 1514
1496 1493 1491 1489 1486 1485 1484 1485 1485 1486 1487 1486 1487 1491 1485 1484 1482 1481 1480 1477 1475 1474 1472 1472 1473 1477 1472 1469 1468 1472 1481 1485 1486 1498 1505 1513 1518 1514 1512 1505 1505 1507 1510 1512 1513
1492 1490 1488 1486 1484 1484 1485 1485 1488 1488 1486 1488 1488 1486 1485 1483 1481 1480 1478 1477 1475 1473 1474 1474 1475 1476 1477 1476 1474 1469 1474 1484 1486 1491 1502 1510 1512 1507 1506 1505 1505 1506 1507 1511 1514
1489 1486 1485 1483 1482 1482 1484 1485 1486 1488 1488 1486 1486 1485 1484 1483 1481 1478 1478 1477 1474 1475 1475 1475 1471 1472 1474 1473 1472 1470 1477 1483 1484 1491 1498 1507 1508 1506 1505 1502 1502 1503 1503 1507 1511
1485 1483 1482 1481 1481 1483 1484 1485 1485 1486 1488 1488 1486 1485 1485 1484 1482 1478 1477 1475 1475 1475 1473 1470 1472 1471 1472 1469 1471 1476 1480 1487 1489 1495 1498 1503 1510 1503 1498 1498 1497 1497 1499 1503 1505
1482 1479 1479 1480 1484 1484 1484 1484 1484 1486 1490 1491 1487 1486 1485 1483 1483 1479 1478 1479 1476 1473 1471 1474 1473 1469 1472 1472 1473 1480 1478 1484 1488 1494 1512 1502 1510 1497 1489 1492 1492 1493 1494 1497 1500
1478 1476 1476 1478 1482 1483 1484 1483 1484 1486 1519 1492 1487 1486 1484 1485 1485 1481 1480 1477 1475 1472 1472 1473 1473 1474 1474 1474 1475 1477 1476 1482 1494 1497 1508 1504 1509 1490 1485 1494 1489 1486 1488 1491 1495
1475 1474 1474 1478 1481 1482 1482 1482 1485 1495 1504 1494 1489 1484 1485 1487 1486 1484 1481 1480 1476 1473 1474 1479 1480 1482 1483 1477 1476 1478 1478 1483 1493 1497 1515 1498 1506 1498 1490 1481 1482 1481 1483 1486 1489
1472 1473 1474 1477 1480 1481 1482 1483 1488 1504 1494 1492 1491 1483 1481 1485 1485 1481 1479 1480 1478 1484 1483 1481 1486 1482 1480 1479 1482 1484 1487 1505 1510 1520 1514 1495 1503 1493 1477 1475 1477 1478 1479 1482 1486
1470 1472 1473 1476 1478 1481 1482 1485 1498 1484 1492 1489 1486 1484 1485 1481 1480 1479 1482 1480 1477 1478 1480 1492 1500 1489 1487 1486 1488 1488 1485 1506 1508 1516 1508 1493 1503 1487 1473 1474 1474 1475 1476 1479 1482
1468 1471 1473 1475 1478 1480 1482 1494 1492 1487 1485 1487 1486 1485 1486 1482 1481 1478 1477 1481 1482 1479 1488 1498 1494 1492 1489 1489 1487 1488 1502 1488 1499 1498 1517 1501 1487 1476 1473 1474 1475 1475 1476 1478 1480
1466 1470 1473 1475 1478 1480 1481 1481 1484 1480 1481 1482 1481 1482 1481 1479 1480 1478 1475 1477 1480 1480 1480 1485 1495 1494 1490 1487 1486 1485 1487 1499 1513 1510 1501 1503 1490 1489 1480 1479 1478 1478 1478 1479 1479
1465 1468 1473 1475 1478 1479 1480 1477 1476 1476 1478 1477 1477 1478 1477 1477 1477 1476 1479 1480 1480 1480 1481 1480 1490 1500 1493 1495 1492 1491 1492 1491 1496 1503 1505 1507 1498 1480 1477 1477 1479 1479 1479 1478 1478
1461 1466 1471 1474 1477 1475 1476 1471 1472 1476 1477 1477 1477 1475 1475 1476 1477 1476 1479 1482 1482 1482 1482 1481 1493 1497 1496 1490 1490 1491 1493 1494 1514 1504 1510 1509 1502 1475 1474 1475 1476 1478 1479 1479 1479
1457 1464 1470 1472 1475 1474 1469 1470 1471 1474 1476 1475 1474 1473 1472 1475 1480 1478 1483 1484 1483 1483 1484 1483 1496 1515 1503 1501 1495 1496 1492 1492 1496 1503 1508 1513 1500 1477 1475 1477 1477 1478 1478 1479 1479
1452 1462 1470 1472 1470 1469 1467 1471 1472 1472 1472 1472 1473 1473 1474 1476 1476 1480 1486 1485 1485 1484 1482 1482 1485 1496 1511 1496 1493 1495 1490 1490 1498 1514 1498 1500 1487 1480 1478 1477 1476 1476 1478 1478 1477
1445 1451 1455 1464 1466 1463 1462 1465 1470 1472 1472 1472 1473 1474 1475 1478 1478 1479 1483 1485 1485 1485 1485 1487 1495 1500 1490 1489 1494 1492 1488 1490 1503 1492 1501 1482 1486 1476 1476 1476 1477 1478 1477 1477 1475
1441 1445 1452 1453 1454 1461 1460 1463 1466 1469 1470 1471 1474 1473 1474 1481 1483 1482 1482 1485 1487 1489 1488 1490 1503 1502 1503 1491 1492 1493 1492 1491 1490 1487 1489 1484 1482 1473 1473 1472 1474 1474 1473 1473 1472
1438 1441 1446 1450 1454 1459 1461 1461 1461 1466 1471 1471 1471 1473 1478 1482 1483 1482 1482 1482 1482 1486 1490 1492 1497 1506 1511 1491 1493 1498 1484 1483 1482 1480 1480 1485 1471 1471 1473 1472 1471 1470 1470 1470 1470